User: anonymous   Login
Location: Unspecified
(0.0000°N, 0.0000°E)
Time: 07:42:45
(UTC+00:00)
Language:

OBJECT-A - Orbit

View from above orbital plane
View from above orbital plane
View from above satellite
View from above satellite

Ground track
Ground track

The orbit data is extracted from the following two-line orbital elements,

1 40381U 15004A   18229.90152120 0.00000000  00000-0  00000-0 0    01
2 40381  97.3523 300.3584 0002000 289.1845  70.8154 15.27649035    06
Epoch (UTC): 17 August 2018 21:38:11
Eccentricity: 0.0002000
inclination: 97.3523°
perigee height: 481 km
apogee height: 484 km
right ascension of ascending node: 300.3584°
argument of perigee: 289.1845°
revolutions per day: 15.27649035
mean anomaly at epoch: 70.8154°
orbit number at epoch: 0

The dashed part of the orbit path shows where the satellite is in the earth's shadow,  

DLR